N6EQ Weather Reports


time (UTC)temp
F
wind
direction
speed
knots
gust
knots
rain 1hr
in
rain 24hr
in
rain mn
in
humidity
%
barometer
mb
20260504213035 76 11.3 19.1 0.00 0.00 0.00 28 948.6
20260504211535 76 11.3 17.4 0.00 0.00 0.00 26 948.8
20260504210046 76 9.6 18.2 0.00 0.00 0.00 27 948.9
20260504204551 76 11.3 18.2 0.00 0.00 0.00 28 949.1
20260504203034 76 11.3 19.1 0.00 0.00 0.00 27 949.1
20260504201532 76 13.0 20.0 0.00 0.00 0.00 28 949.1
20260504200031 75 13.0 19.1 0.00 0.00 0.00 28 949.2
20260504194531 75 10.4 20.0 0.00 0.00 0.00 29 949.4
20260504193030 74 165 11.3 20.0 0.00 0.00 0.00 30 949.4
20260504191531 74 178 11.3 18.2 0.00 0.00 0.00 30 949.5
20260504190028 73 182 11.3 20.9 0.00 0.00 0.00 31 949.7
20260504184528 73 221 9.6 18.2 0.00 0.00 0.00 32 949.6
20260504183027 72 186 10.4 20.0 0.00 0.00 0.00 33 949.8
20260504181527 73 200 8.7 20.0 0.00 0.00 0.00 33 950.0
20260504180025 73 197 11.3 19.1 0.00 0.00 0.00 33 949.8
20260504174524 72 8.7 16.5 0.00 0.00 0.00 33 949.9
20260504173023 72 11.3 18.2 0.00 0.00 0.00 33 949.5
20260504171522 72 10.4 18.2 0.00 0.00 0.00 32 949.5
20260504081509 79 221 11.3 18.2 0.00 0.00 0.00 25 946.2
20260504044543 85 153 8.7 20.9 0.00 0.00 0.00 19 944.6
20260504043048 86 209 8.7 17.4 0.00 0.00 0.00 19 944.5
20260504041545 86 195 12.2 20.0 0.00 0.00 0.00 19 944.4
20260504040045 86 164 9.6 18.2 0.00 0.00 0.00 19 944.3
20260504034550 87 181 7.8 16.5 0.00 0.00 0.00 19 944.1
20260504033040 87 171 10.4 22.6 0.00 0.00 0.00 19 943.9
20260504031543 87 146 11.3 19.1 0.00 0.00 0.00 20 943.5
20260504030039 88 174 8.7 16.5 0.00 0.00 0.00 20 943.3
20260504024546 88 198 7.0 16.5 0.00 0.00 0.00 19 943.3
20260504023038 88 188 7.8 18.2 0.00 0.00 0.00 18 943.2
20260504021540 89 179 9.6 19.1 0.00 0.00 0.00 17 943.1
20260504020041 90 153 11.3 21.7 0.00 0.00 0.00 16 943.1
20260504014538 90 155 11.3 20.0 0.00 0.00 0.00 16 943.1
20260504013046 91 163 11.3 19.1 0.00 0.00 0.00 15 943.3
20260504011534 91 162 12.2 19.1 0.00 0.00 0.00 14 943.2
20260504010037 91 180 9.6 19.1 0.00 0.00 0.00 14 943.3
20260504004532 92 8.7 23.5 0.00 0.00 0.00 14 943.5
20260504003032 92 221 12.2 24.3 0.00 0.00 0.00 13 943.4
20260504001536 93 172 13.9 22.6 0.00 0.00 0.00 13 943.6
20260504000030 93 229 13.0 21.7 0.00 0.00 0.00 12 943.6
20260503234529 93 169 13.0 20.9 0.00 0.00 0.00 12 943.3
20260503233028 93 214 9.6 17.4 0.00 0.00 0.00 12 943.7
20260503231528 93 207 13.0 22.6 0.00 0.00 0.00 12 943.7
20260503230037 93 144 15.6 21.7 0.00 0.00 0.00 12 943.7
20260503224524 93 173 13.0 20.9 0.00 0.00 0.00 11 943.9
20260503223021 93 12.2 26.1 0.00 0.00 0.00 11 944.0
20260503221523 93 205 9.6 18.2 0.00 0.00 0.00 12 944.2
20260503220018 93 202 9.6 23.5 0.00 0.00 0.00 12 944.4
20260503214534 93 184 13.9 28.7 0.00 0.00 0.00 12 944.7